Miscellaneous Local Product
Issued by NWS Hastings, NE

Home | Current Version | Previous Version | Graphics & Text | Print | Product List | Glossary On
Versions: 1 2 3 4 5 6 7 8 9 10 11 12 13 14 15 16 17 18 19 20 21 22 23 24 25 26 27 28 29 30 31 32 33 34 35 36 37 38 39 40 41 42 43 44 45 46 47 48 49 50
000
AXUS43 KGID 242202
MISGRI

GID CWA HOURLY WEATHER ROUNDUP
NATIONAL WEATHER SERVICE HASTINGS NE
500 PM CDT THU MAY 24 2018

NOTE: "FAIR" INDICATES FEW OR NO CLOUDS BELOW 12,000 FEET WITH NO
SIGNIFICANT WEATHER AND/OR OBSTRUCTIONS TO VISIBILITY.

...SOUTH CENTRAL NEBRASKA...

CITY           SKY/WX    TMP DP  RH WIND       PRES   REMARKS
GRAND ISLAND   PTSUNNY   85  59  41 S18G26    29.93F
KEARNEY        SUNNY     86  58  38 S21G26    29.92F
HASTINGS       MOSUNNY   84  57  39 SW14G23   29.95F
ORD            PTSUNNY   84  60  44 SW13G23   29.91F
YORK           CLOUDY    86  57  37 S14       29.94S
AURORA         CLOUDY    85  52  31 S15       29.93F
LEXINGTON      MOSUNNY   87  60  40 S14       29.91F
HOLDREGE       SUNNY     86  59  40 S18G28    29.92F
HEBRON         CLOUDY    86  58  38 S12       29.95S

...NEBRASKA PANHANDLE...

CITY           SKY/WX    TMP DP  RH WIND       PRES   REMARKS
CHADRON        SUNNY     83  50  31 W15       29.94F
ALLIANCE       SUNNY     82  46  28 W17G26    29.98F
SCOTTSBLUFF    MOSUNNY   84  48  28 W14G28    29.98F
SIDNEY         SUNNY     84  39  20 SW9       30.03S

...WESTERN AND NORTH CENTRAL NEBRASKA...

CITY           SKY/WX    TMP DP  RH WIND       PRES   REMARKS
VALENTINE      MOSUNNY   90  49  24 SW8       29.88F
AINSWORTH      MOSUNNY   81  66  60 S14       29.92F
ONEILL         CLOUDY    82  65  56 S6        29.92F
BROKEN BOW     MOSUNNY   84  63  49 SE8G17    29.93F
IMPERIAL       SUNNY     88  46  23 NE9       29.97F
NORTH PLATTE   SUNNY     84  62  47 CALM      29.94F
MCCOOK         SUNNY     88  61  40 VRB5      29.91F

...EASTERN NEBRASKA...

CITY           SKY/WX    TMP DP  RH WIND       PRES   REMARKS
NORFOLK        CLOUDY    89  57  33 S16G30    29.88F
SO SIOUX CITY  CLOUDY    91  60  35 S21G30    29.88F HX  90
TEKAMAH        CLOUDY    88  63  43 S22       29.90F
COLUMBUS       CLOUDY    90  60  36 S15       29.91F
ALBION         MOSUNNY   86  60  40 SW18G26   29.92F
OMAHA EPPLEY   CLOUDY    88  63  43 S20       29.92F
OFFUTT AFB     CLOUDY    86  66  51 SE15      29.92F
MILLARD        CLOUDY    88  65  46 S10G20    29.93F HX  90
LINCOLN        CLOUDY    87  62  43 S14       29.92F
NEBRASKA CITY  CLOUDY    86  65  50 S13G24    29.94F
BEATRICE       CLOUDY    89  67  48 S14       29.94F HX  91
FALLS CITY     CLOUDY    88  63  43 S16G26    29.95F

...NORTHERN KANSAS...

CITY           SKY/WX    TMP DP  RH WIND       PRES   REMARKS
GOODLAND       MOSUNNY   86  54  33 NW6       29.98F
HILL CITY      SUNNY     89  62  40 S14G22    29.91F
NORTON         CLEAR     93  57  29 S15G24    29.90F HX  92
PHILLIPSBURG   SUNNY     90  55  31 SE14G20   29.92F
SMITH CENTER   SUNNY     86  55  35 SE16      29.94F
HAYS           SUNNY     85  65  51 S17       29.94F HAZE
RUSSELL        SUNNY     86  65  49 S17       29.93F
CONCORDIA      CLOUDY    82  61  48 SW13G21   29.95F
SALINA         CLOUDY    84  62  47 S15       29.95F
TOPEKA         CLOUDY    76  68  76 E13       30.01R THUNDER



USA.gov is the U.S. government's official web portal to all federal, state and local government web resources and services.